Location: Friaudour
(46.0460°N, 1.2873°E)
Time: 04:32:43
(UTC+00:00)

Iridium 4 Rocket - Pass Details

Date: 14 July 2020
Orbit: 583 x 906 km, 86.9° (Epoch: 06 August)

Event Time Altitude Azimuth Distance (km) Brightness Sun altitude
Exits shadow 00:24:12 41° 149° (SSE) 1,227 4.1 -22.1°
Maximum altitude 00:26:02 61° 89° (E) 948 3.9 -22.1°
Drops below altitude 10° 00:31:19 10° 10° (N) 2,371 7.2 -22.0°
Sets 00:33:36 0° 7° (N) 3,255 8.3 -21.9°
